#timestamp,LO_Frequency,Hit,StdDev 
1528765215.4,286047002.1,N
1528765235.3,286047001.6,N
1528765255.1,286047004.2,Y
1528765275.8,286047002.4,P
1528765295.7,286047002.3,N
1528765315.5,286046999.8,N
1528765335.4,286047002.1,N
1528765355.2,286047002.0,N
1528765375.0,286047001.5,N
1528765375.9,286047001.5,N
1528765395.8,286046999.8,N
1528765415.6,286046999.9,N
1528765435.4,286046999.7,N
1528765455.3,286046999.7,N
1528765475.1,286046999.7,N
1528765495.9,286047002.4,N
1528765515.7,286046999.9,N
1528765535.5,286047000.6,N
1528765555.4,286047002.5,N
1528765575.2,286047000.6,N
1528765595.0,286046999.8,N
1528765595.9,286046999.8,N
1528765615.8,286047002.7,N
1528765635.6,286047001.5,N
1528765655.5,286047001.4,N
1528765675.3,286047002.2,N
1528765695.1,286047002.7,N
1528765715.9,286047002.6,N
1528765735.7,286047001.9,N
1528765755.5,286047001.5,N
1528765775.4,286047001.6,N
1528765795.2,286047001.7,N
1528765815.1,286047002.1,N
1528765816.0,286047002.1,N
1528765835.8,286047002.2,N
1528765855.6,286047002.5,N
1528765875.5,286047001.4,N
1528765895.3,286047004.4,Y
1528765915.1,286046999.7,P
1528765935.9,286046999.7,N
1528765955.7,286047002.0,N
1528765975.6,286047002.4,N
1528765995.4,286047001.8,N
1528766015.2,286047002.1,N
1528766035.1,286047001.5,N
1528766036.0,286047001.5,N
1528766055.8,286047001.9,N
1528766075.6,286047004.4,Y
1528766095.5,286047000.8,P
1528766115.3,286046998.1,P
1528766135.2,286047000.3,N
1528766155.9,286046999.7,N
1528766175.7,286047002.0,N
1528766195.6,286047004.4,Y
1528766215.4,286047001.9,P
1528766235.2,286047001.6,N
1528766255.1,286047000.4,N
1528766256.0,286047000.4,N
1528766275.8,286047000.9,N
1528766295.7,286047000.6,N
1528766315.5,286047000.8,N
1528766335.3,286047000.7,N
1528766355.2,286047001.2,N
1528766375.0,286046998.7,N
1528766375.9,286046998.7,N
1528766395.7,286046998.3,N
1528766415.6,286046998.4,N
1528766435.4,286046998.7,N
1528766455.3,286047000.4,N
1528766475.1,286047000.9,N
1528766476.0,286047000.9,N
1528766495.8,286046998.1,N
1528766515.7,286046999.2,N
1528766535.5,286046998.6,N
1528766555.3,286046996.5,Y
1528766575.2,286046996.5,P
1528766595.0,286046997.4,N
1528766595.9,286046997.4,N
1528766615.8,286046997.1,N
1528766635.6,286046997.4,N
1528766655.4,286046995.1,Y
1528766675.3,286046999.5,P
1528766695.1,286046999.8,N
1528766715.9,286047000.2,N
1528766735.7,286047001.0,N
1528766755.5,286047000.7,N
1528766775.4,286047000.9,N
1528766795.2,286046999.2,N
1528766815.1,286046999.4,N
1528766816.0,286046999.4,N
1528766835.8,286046998.4,N
1528766855.6,286046996.5,Y
1528766875.5,286046997.0,P
1528766895.3,286046999.6,N
1528766915.1,286046998.5,N
1528766935.9,286046998.8,N
1528766955.7,286047000.9,N
1528766975.6,286046998.6,N
1528766995.4,286046998.4,N
1528767015.2,286046999.3,N
1528767035.1,286047001.2,N
1528767036.0,286047001.2,N
1528767055.8,286046999.7,N
1528767075.7,286046998.3,N
1528767095.5,286047001.1,N
1528767115.3,286046999.1,N
1528767135.2,286046999.2,N
1528767155.0,286047000.9,N
1528767155.9,286047000.9,N
1528767175.7,286046998.1,N
1528767195.6,286046998.1,N
1528767215.4,286046998.3,N
1528767235.3,286047000.5,N
1528767255.1,286047002.8,N
1528767256.0,286047002.8,N
1528767275.8,286047000.0,N
1528767295.7,286047000.6,N
1528767315.5,286046999.4,N
1528767335.3,286046996.9,N
1528767355.2,286046999.4,N
1528767375.0,286046998.2,N
1528767375.9,286046998.2,N
1528767395.8,286047000.6,N
1528767415.6,286046998.9,N
1528767435.4,286046999.2,N
1528767455.3,286046997.7,N
1528767475.1,286046997.2,N
1528767495.8,286047000.8,N
1528767515.7,286046998.9,N
1528767535.5,286046997.0,N
1528767555.4,286046996.8,N
1528767575.2,286046996.7,N
1528767595.0,286046996.9,N
1528767595.9,286046996.9,N
1528767615.8,286046997.1,N
1528767635.6,286046998.9,N
1528767655.4,286046999.1,N
1528767675.3,286046998.7,N
1528767695.1,286047000.3,N
1528767715.9,286046998.2,N
1528767735.7,286046998.9,N
1528767755.5,286047000.8,N
1528767775.4,286046998.6,N
1528767795.2,286047002.4,N
1528767815.0,286046996.6,N
1528767815.9,286046996.6,N
1528767835.8,286047000.5,N
1528767855.6,286047000.7,N
1528767875.5,286046999.0,N
1528767895.3,286047000.1,N
1528767915.1,286046996.5,N
1528767935.9,286046999.5,N
1528767955.7,286047000.3,N
1528767975.5,286046998.2,N
1528767995.4,286046998.4,N
1528768015.2,286046998.9,N
1528768035.0,286046998.5,N
1528768036.0,286046998.5,N
1528768055.8,286046999.4,N
1528768075.6,286047001.0,N
1528768095.5,286047000.4,N
1528768115.3,286047000.9,N
1528768135.1,286047000.6,N
1528768155.9,286047001.1,N
1528768175.7,286047000.4,N
1528768195.5,286046998.2,N
1528768215.4,286046998.1,N
1528768235.2,286046999.0,N
1528768255.1,286046999.5,N
1528768256.0,286046999.5,N
1528768275.8,286046997.3,N
1528768295.6,286046996.5,N
1528768315.5,286046997.8,N
1528768335.3,286047000.3,N
1528768355.1,286047001.0,N
1528768375.9,286046998.8,N
1528768395.7,286046999.5,N
1528768415.6,286046996.8,N
1528768435.4,286046997.0,N
1528768455.2,286046999.6,N
1528768475.0,286046999.5,N
1528768475.9,286046999.5,N
1528768495.8,286046997.0,N
1528768515.6,286046997.2,N
1528768535.4,286046997.1,N
1528768555.3,286046996.9,N
1528768575.1,286046999.1,N
1528768595.9,286046996.7,N
1528768615.7,286046997.0,N
1528768635.5,286046996.6,N
1528768655.4,286046996.5,N
1528768675.2,286046999.4,N
1528768695.0,286046999.6,N
1528768696.0,286046999.6,N
1528768715.8,286046996.7,N
1528768735.6,286047001.0,N
1528768755.5,286047000.3,N
1528768775.3,286047000.0,N
1528768795.1,286047000.7,N
